Flag for Taiwan Weather past 2 weeks in Taipei, Taiwan

Now
57 °F

Partly sunny.


Feels Like: 55 °F
Forecast: 55 / 67 °F
Wind: 10 mph from East

Location: Sungshan / Taipei

Current Time: Mar 1, 2015 at 11:50:07 AM

Latest Report: Mar 1, 2015 at 11:00 AM


Visibility: N/A

Pressure: 30.24 "Hg

Humidity: 72%

Dew point: 48 °F

Location of TaipeiLocation

Historic Weather in Taipei — Graph

°F

Taipei temperature yesterday

Maximum temperature yesterday: 72 °F (at 1:00 PM)
Minimum temperature yesterday: 63 °F (at 1:00 AM)
Average temperature yesterday: 66 °F

Past Weeks' High & Low Weather Summary

 TemperatureHumidityPressure
High81 °F (Feb 21, 1:00 PM)100% (Feb 24, 6:30 AM)30.27 "Hg (Feb 24, 6:30 AM)
Low55 °F (Mar 1, 6:00 AM)36% (Feb 14, 10:30 AM)29.89 "Hg (Feb 25, 2:30 PM)
Average67 °F73%30.05 "Hg
* Reported Feb 14 10:00 AM — Mar 1 10:00 AM, Taipei, Weather by CustomWeather, © 2015

Note: Actual official high and low records may vary slightly from our data, if they occured in-between our weather recording intervals... More about our weather records

Advertising

Taipei weather history for previous 24 hours

 ConditionsComfort  
Time TempWeatherWind HumidityBarometerVisibility
10:00 AM
Sun, Mar 1
59 °FPartly sunny.8 mph72%30.24 "HgN/A
9:30 AM57 °FPartly sunny.9 mph77%30.21 "HgN/A
9:00 AM57 °FPartly sunny.12 mph77%30.21 "HgN/A
8:30 AM57 °FPartly sunny.9 mph77%30.21 "HgN/A
8:00 AM57 °FPartly sunny.9 mph77%30.21 "HgN/A
7:30 AM55 °FPartly sunny.10 mph82%30.18 "HgN/A
7:00 AM55 °FCloudy.13 mph88%30.18 "HgN/A
6:30 AM55 °FMostly cloudy.10 mph88%30.18 "HgN/A
6:00 AM55 °FPassing clouds.14 mph88%30.18 "HgN/A
5:00 AM57 °FPartly cloudy.12 mph82%30.15 "HgN/A
4:00 AM59 °FLight rain. Partly cloudy.12 mph88%30.12 "Hg5 mi
3:46 AM59 °FLight rain. Fog.10 mph94%30.12 "Hg2 mi
3:00 AM61 °FLight rain. Fog.7 mph94%30.12 "Hg1 mi
2:56 AM61 °FLight rain. Fog.7 mph94%30.12 "Hg1 mi
2:00 AM61 °FDrizzle. Fog.7 mph88%30.12 "Hg2 mi
1:56 AM61 °FFog.7 mph88%30.12 "Hg2 mi
1:00 AM63 °FPassing clouds.10 mph83%30.09 "HgN/A
12:00 AM63 °FPartly cloudy.9 mph83%30.09 "HgN/A
11:30 PM
Sat, Feb 28
64 °FPassing clouds.5 mph83%30.09 "HgN/A
11:00 PM64 °FPartly cloudy.3 mph83%30.09 "HgN/A
10:30 PM64 °FPassing clouds.5 mph83%30.07 "HgN/A
10:00 PM64 °FPassing clouds.3 mph83%30.07 "HgN/A
9:30 PM64 °FPassing clouds.1 mph83%30.07 "HgN/A
9:00 PM63 °FPassing clouds.3 mph88%30.07 "HgN/A
8:30 PM63 °FPartly cloudy.7 mph88%30.07 "HgN/A
8:00 PM63 °FPassing clouds.9 mph88%30.07 "HgN/A
7:30 PM63 °FPartly cloudy.7 mph88%30.07 "HgN/A
7:00 PM63 °FPartly cloudy.9 mph88%30.01 "HgN/A
6:30 PM64 °FPartly cloudy.6 mph83%30.01 "HgN/A
6:00 PM64 °FPartly cloudy.7 mph83%30.01 "HgN/A
5:30 PM64 °FBroken clouds.8 mph83%29.98 "Hg5 mi
5:00 PM66 °FPartly sunny.9 mph78%29.98 "Hg5 mi
4:30 PM68 °FPartly sunny.9 mph73%29.98 "Hg5 mi
4:00 PM68 °FScattered clouds.9 mph78%29.95 "Hg5 mi
3:30 PM70 °FScattered clouds.12 mph73%29.95 "Hg5 mi
3:00 PM70 °FPassing clouds.5 mph73%29.95 "Hg5 mi
2:47 PM70 °FScattered clouds.3 mph73%29.95 "Hg5 mi
2:30 PM70 °FScattered clouds.7 mph73%29.95 "Hg5 mi
2:00 PM68 °FPartly sunny.12 mph73%29.98 "HgN/A
1:30 PM70 °FPartly sunny.13 mph69%29.98 "HgN/A
1:00 PM72 °FPartly sunny.9 mph69%30.04 "Hg5 mi
12:30 PM70 °FPartly sunny.9 mph73%30.04 "HgN/A
12:00 PM70 °FBroken clouds.8 mph69%30.07 "HgN/A
11:30 AM68 °FPartly sunny.9 mph73%30.07 "HgN/A
11:00 AM68 °FPartly sunny.5 mph73%30.09 "HgN/A
Weather by CustomWeather, © 2015

See weather overviewHow to use our weather pages